Tracking 30072 objects as of 14-Jan-2025
HD Live streaming from Space Station
objects crossing your sky now

ONEWEB-0224

Track ONEWEB-0224 now!
10-day predictions
ONEWEB-0224 is classified as:


NORAD ID: 48794
Int'l Code: 2021-045AD
Perigee: 1,207.1 km
Apogee: 1,210.8 km
Inclination: 87.9 °
Period: 109.5 minutes
Semi major axis: 7579 km
RCS: Unknown
Launch date: May 28, 2021
Source: United Kingdom (UK)
Launch site: VOSTOCHNY COSMODROME (VOSTO)
Your satellite tracking list
Your tracking list is empty




NASA's NSSDC Master Catalog

Two Line Element Set (TLE):
1 48794U 21045AD  25013.69476551 -.00000012  00000-0 -66367-4 0  9995
2 48794  87.9078   2.6665 0002450 108.8185 251.3211 13.15547234175979
Source of the keplerian elements: AFSPC